Change the Weather History Date:

Sunday, November 4, 2012

  Actual Average Record
Temperature  
Mean Temperature 19 °F -  
Max Temperature 21 °F 9 °F 44 °F (2010)
Min Temperature 17 °F -9 °F -16 °F (1999)
Degree Days  
Heating Degree Days 46    
Moisture  
Dew Point 13 °F    
Average Humidity 77    
Maximum Humidity 86    
Minimum Humidity 68    
Precipitation  
Precipitation 0.00 in 0.03 in - ()
Sea Level Pressure  
Sea Level Pressure 29.59 in    
Wind  
Wind Speed 9 mph ()    
Max Wind Speed 14 mph    
Max Gust Speed 20 mph    
Visibility 15.5 miles    
Events Snow    
Averages and records for this station are not official NWS values.
T = Trace of Precipitation, MM = Missing Value Source: Averaged Metar Reports

Daily Weather History Graph

Daily Weather History Graph

Search for Another Location

Airport or City:

Trip Planner

Search our weather history database for the weather conditions in past years. The results will help you decide how hot, cold, wet, or windy it might be!

Date:

Astronomy

Nov. 04, 2012 Rise Set
Actual Time 8:55 AM PST 4:37 PM PST
Civil Twilight 8:01 AM PST 5:31 PM PST
Nautical Twilight 7:04 AM PST 6:28 PM PST
Astronomical Twilight 6:10 AM PST 7:22 PM PST
Moon 9:04 PM PST (11/4) 2:06 PM PST (11/4)
Length of Visible Light 9h 29m
Length of Day
7h 42m
Waning Gibbous, 71% of the Moon is Illuminated
Nov 4
Waning Gibbous
Nov 6
Last Quarter
Nov 13
New
Nov 20
First Quarter
Nov 28
Full

Hourly Weather History & Observations

Time (PST) Temp. Windchill Dew Point Humidity Pressure Visibility Wind Dir Wind Speed Gust Speed Precip Events Conditions
12:00 AM 19.4 °F 6.0 °F 10.4 °F 68% 29.73 in 8.0 mi NNE 13.8 mph - N/A Snow Light Snow
1:00 AM 17.6 °F 4.3 °F 12.2 °F 79% 29.73 in 8.0 mi North 12.7 mph - N/A Snow Light Snow
1:00 AM 17.6 °F 6.4 °F 12.2 °F 79% 29.72 in 8.0 mi NNE 9.2 mph - N/A Snow Light Snow
2:00 AM 17.6 °F 5.0 °F 12.2 °F 79% 29.71 in 8.0 mi NNE 11.5 mph - N/A   Overcast
3:00 AM 17.6 °F 5.0 °F 12.2 °F 79% 29.70 in 8.0 mi North 11.5 mph 19.6 mph N/A Snow Light Snow
5:00 AM 17.6 °F 5.0 °F 12.2 °F 79% 29.67 in 8.0 mi NNE 11.5 mph - N/A Snow Light Snow
6:00 AM 17.6 °F 5.7 °F 14.0 °F 86% 29.66 in 8.0 mi NNE 10.4 mph - N/A Snow Light Snow
7:00 AM 17.6 °F 9.3 °F 14.0 °F 86% 29.64 in 8.0 mi ENE 5.8 mph - N/A Snow Light Snow
7:41 AM - - - N/A% - 20.0 mi NE 8.1 mph - N/A   Overcast
8:00 AM 17.6 °F 5.0 °F 14.0 °F 86% 29.63 in 20.0 mi NNE 11.5 mph - N/A   Overcast
8:51 AM - - - N/A% - 10.0 mi North 12.7 mph - N/A   Unknown
9:00 AM 17.6 °F 5.0 °F 12.2 °F 79% 29.62 in 10.0 mi NE 11.5 mph - N/A Snow Light Snow
10:00 AM 17.6 °F 5.0 °F 12.2 °F 79% 29.60 in 20.0 mi NNE 11.5 mph - N/A Snow Light Snow
11:00 AM 17.6 °F 5.0 °F 12.2 °F 79% 29.58 in 20.0 mi NNE 11.5 mph - N/A Snow Light Snow
12:00 PM 19.4 °F 7.9 °F 10.4 °F 68% 29.57 in 20.0 mi NNE 10.4 mph - N/A   Overcast
1:00 PM 17.6 °F 6.4 °F 10.4 °F 73% 29.55 in 20.0 mi NNE 9.2 mph - N/A   Overcast
2:00 PM 17.6 °F 6.4 °F 10.4 °F 73% 29.52 in 20.0 mi North 9.2 mph - N/A   Overcast
3:00 PM 21.2 °F 12.6 °F 12.2 °F 68% 29.50 in 20.0 mi NNE 6.9 mph - N/A   Overcast
4:00 PM 21.2 °F 10.1 °F 14.0 °F 74% 29.48 in 20.0 mi North 10.4 mph - N/A   Overcast
5:00 PM 19.4 °F 7.2 °F 14.0 °F 80% 29.48 in 20.0 mi North 11.5 mph - N/A   Overcast
6:00 PM 19.4 °F 7.2 °F 14.0 °F 80% 29.47 in 20.0 mi North 11.5 mph - N/A   Overcast
7:00 PM 21.2 °F 9.5 °F 12.2 °F 68% 29.47 in 20.0 mi North 11.5 mph - N/A   Overcast
8:00 PM 21.2 °F 11.7 °F 12.2 °F 68% 29.47 in 20.0 mi West 8.1 mph - N/A   Overcast
9:00 PM 21.2 °F 11.7 °F 14.0 °F 74% 29.48 in 20.0 mi NW 8.1 mph - N/A   Overcast
9:44 PM - - - N/A% - 20.0 mi West 5.8 mph - N/A   Unknown
10:00 PM 19.4 °F - 15.8 °F 86% 29.49 in 20.0 mi Calm Calm - N/A Snow Light Snow